Tiempo cada hora Gogolkowo

Hoy, 25 Junio, Viernes

Tiempo Temperatura Precipitaciones Viento Presión Humedad
00:00 +16°C° 0 mm 3 mps 752 mmHg 97%
01:00 +15°C° 0 mm 2 mps 752 mmHg 97%
02:00 +15°C° 0 mm 2 mps 752 mmHg 97%
03:00 +15°C° 0 mm 2 mps 752 mmHg 96%
04:00 +15°C° 0 mm 2 mps 752 mmHg 96%
05:00 +15°C° 0 mm 2 mps 752 mmHg 93%
06:00 +16°C° 0 mm 3 mps 752 mmHg 89%
07:00 +17°C° 0 mm 3 mps 753 mmHg 86%
08:00 +17°C° 0.4 mm 3 mps 753 mmHg 86%
09:00 +17°C° 0.4 mm 3 mps 753 mmHg 86%
10:00 +18°C° 0.4 mm 3 mps 753 mmHg 85%
11:00 +19°C° 0 mm 2 mps 753 mmHg 79%
12:00 +20°C° 0 mm 2 mps 753 mmHg 72%
13:00 +23°C° 0 mm 2 mps 753 mmHg 66%
14:00 +23°C° 0.2 mm 2 mps 753 mmHg 67%
15:00 +23°C° 0.2 mm 2 mps 753 mmHg 68%
16:00 +22°C° 0.2 mm 3 mps 752 mmHg 70%
17:00 +21°C° 0.2 mm 3 mps 752 mmHg 75%
18:00 +20°C° 0.2 mm 3 mps 752 mmHg 79%
19:00 +19°C° 0.2 mm 3 mps 752 mmHg 84%
20:00 +18°C° 0.1 mm 3 mps 753 mmHg 87%
21:00 +17°C° 0.1 mm 2 mps 753 mmHg 90%
22:00 +16°C° 0.1 mm 2 mps 754 mmHg 94%
23:00 +16°C° 0 mm 2 mps 754 mmHg 94%

Mañana, 26 Junio, Sábado

Tiempo Temperatura Precipitaciones Viento Presión Humedad
00:00 +15°C° 0 mm 2 mps 754 mmHg 94%
01:00 +15°C° 0 mm 2 mps 754 mmHg 94%
02:00 +14°C° 0 mm 2 mps 754 mmHg 95%
03:00 +14°C° 0 mm 2 mps 754 mmHg 95%
04:00 +14°C° 0 mm 2 mps 754 mmHg 95%
05:00 +15°C° 0 mm 2 mps 754 mmHg 90%
06:00 +17°C° 0 mm 2 mps 755 mmHg 85%
07:00 +18°C° 0 mm 2 mps 755 mmHg 80%
08:00 +19°C° 0 mm 2 mps 755 mmHg 73%
09:00 +21°C° 0 mm 3 mps 755 mmHg 65%
10:00 +22°C° 0 mm 3 mps 755 mmHg 57%
11:00 +24°C° 0 mm 3 mps 755 mmHg 53%
12:00 +24°C° 0 mm 3 mps 755 mmHg 50%
13:00 +25°C° 0 mm 3 mps 754 mmHg 46%
14:00 +25°C° 0 mm 3 mps 754 mmHg 45%
15:00 +25°C° 0 mm 3 mps 754 mmHg 45%
16:00 +25°C° 0 mm 3 mps 754 mmHg 44%
17:00 +24°C° 0 mm 2 mps 754 mmHg 50%
18:00 +23°C° 0 mm 2 mps 754 mmHg 57%
19:00 +22°C° 0 mm 1 mps 754 mmHg 64%
20:00 +20°C° 0 mm 2 mps 754 mmHg 67%
21:00 +18°C° 0 mm 2 mps 754 mmHg 71%
22:00 +16°C° 0 mm 2 mps 754 mmHg 75%
23:00 +16°C° 0 mm 2 mps 754 mmHg 78%

Pasado mañana, 27 Junio, Domingo

Tiempo Temperatura Precipitaciones Viento Presión Humedad
00:00 +15°C° 0 mm 2 mps 755 mmHg 82%
01:00 +14°C° 0 mm 2 mps 755 mmHg 85%
02:00 +14°C° 0 mm 2 mps 755 mmHg 87%
03:00 +14°C° 0 mm 1 mps 755 mmHg 89%
04:00 +14°C° 0 mm 1 mps 755 mmHg 90%
05:00 +15°C° 0 mm 1 mps 755 mmHg 84%
06:00 +18°C° 0 mm 1 mps 755 mmHg 78%
07:00 +20°C° 0 mm 1 mps 755 mmHg 72%
08:00 +20°C° 0 mm 2 mps 755 mmHg 65%
09:00 +23°C° 0 mm 2 mps 755 mmHg 58%
10:00 +24°C° 0 mm 2 mps 755 mmHg 51%
11:00 +25°C° 0 mm 2 mps 755 mmHg 49%
12:00 +25°C° 0 mm 2 mps 754 mmHg 47%
13:00 +26°C° 0 mm 2 mps 754 mmHg 44%
14:00 +26°C° 0 mm 2 mps 754 mmHg 43%
15:00 +26°C° 0 mm 2 mps 754 mmHg 43%
16:00 +27°C° 0 mm 2 mps 754 mmHg 42%
17:00 +26°C° 0 mm 2 mps 754 mmHg 48%
18:00 +25°C° 0 mm 1 mps 754 mmHg 54%
19:00 +24°C° 0 mm 1 mps 753 mmHg 59%
20:00 +22°C° 0 mm 1 mps 754 mmHg 61%
21:00 +20°C° 0 mm 2 mps 754 mmHg 64%
22:00 +19°C° 0 mm 2 mps 754 mmHg 66%
23:00 +19°C° 0 mm 1 mps 754 mmHg 70%

28 Junio, Lunes

Tiempo Temperatura Precipitaciones Viento Presión Humedad
00:00 +18°C° 0 mm 1 mps 754 mmHg 74%
01:00 +18°C° 0 mm 1 mps 754 mmHg 79%
02:00 +16°C° 0 mm 1 mps 754 mmHg 80%
03:00 +16°C° 0 mm 1 mps 754 mmHg 81%
04:00 +16°C° 0 mm 1 mps 754 mmHg 82%
05:00 +19°C° 0 mm 1 mps 754 mmHg 76%
06:00 +18°C° 0 mm 0 mps 754 mmHg 71%
07:00 +20°C° 0 mm 0 mps 754 mmHg 66%
08:00 +24°C° 0 mm 1 mps 754 mmHg 61%
09:00 +25°C° 0 mm 1 mps 754 mmHg 56%
10:00 +27°C° 0 mm 1 mps 754 mmHg 51%
11:00 +27°C° 0 mm 1 mps 754 mmHg 49%
12:00 +28°C° 0 mm 1 mps 754 mmHg 47%
13:00 +28°C° 0 mm 1 mps 754 mmHg 44%
14:00 +28°C° 0 mm 1 mps 754 mmHg 44%
15:00 +29°C° 0 mm 1 mps 753 mmHg 44%
16:00 +29°C° 0 mm 1 mps 753 mmHg 43%
17:00 +28°C° 0 mm 1 mps 753 mmHg 49%
18:00 +27°C° 0 mm 1 mps 753 mmHg 54%
19:00 +25°C° 0 mm 2 mps 753 mmHg 60%
20:00 +24°C° 0 mm 1 mps 752 mmHg 61%
21:00 +23°C° 0 mm 1 mps 752 mmHg 61%
22:00 +22°C° 0 mm 1 mps 752 mmHg 62%
23:00 +20°C° 0 mm 2 mps 752 mmHg 63%

29 Junio, Martes

Tiempo Temperatura Precipitaciones Viento Presión Humedad
00:00 +19°C° 0 mm 2 mps 752 mmHg 65%
01:00 +19°C° 0 mm 2 mps 752 mmHg 66%
02:00 +19°C° 0 mm 2 mps 752 mmHg 67%
03:00 +18°C° 0 mm 2 mps 752 mmHg 69%
04:00 +18°C° 0 mm 2 mps 752 mmHg 70%
05:00 +20°C° 0 mm 2 mps 752 mmHg 66%
06:00 +21°C° 0 mm 2 mps 752 mmHg 63%
07:00 +24°C° 0 mm 3 mps 751 mmHg 60%
08:00 +25°C° 0 mm 3 mps 751 mmHg 55%
09:00 +27°C° 0 mm 3 mps 751 mmHg 50%
10:00 +28°C° 0 mm 3 mps 751 mmHg 46%
11:00 +29°C° 0 mm 3 mps 751 mmHg 44%
12:00 +30°C° 0 mm 3 mps 751 mmHg 43%
13:00 +30°C° 0 mm 3 mps 750 mmHg 41%
14:00 +30°C° 0 mm 2 mps 750 mmHg 41%
15:00 +30°C° 0 mm 2 mps 750 mmHg 42%
16:00 +30°C° 0 mm 1 mps 750 mmHg 42%
17:00 +29°C° 0 mm 2 mps 750 mmHg 48%
18:00 +28°C° 0 mm 2 mps 749 mmHg 54%
19:00 +27°C° 0 mm 2 mps 749 mmHg 59%
20:00 +25°C° 0 mm 2 mps 749 mmHg 60%
21:00 +24°C° 0 mm 2 mps 749 mmHg 60%
22:00 +23°C° 0 mm 2 mps 749 mmHg 61%
23:00 +21°C° 0 mm 2 mps 749 mmHg 63%

30 Junio, Miércoles

Tiempo Temperatura Precipitaciones Viento Presión Humedad
00:00 +21°C° 0 mm 2 mps 749 mmHg 66%
01:00 +20°C° 0 mm 2 mps 749 mmHg 69%
02:00 +20°C° 0.1 mm 2 mps 749 mmHg 72%
03:00 +20°C° 0.1 mm 1 mps 749 mmHg 76%
04:00 +20°C° 0.1 mm 1 mps 748 mmHg 80%
05:00 +20°C° 0.3 mm 2 mps 748 mmHg 80%
06:00 +21°C° 0.3 mm 2 mps 748 mmHg 79%
07:00 +21°C° 0.3 mm 2 mps 749 mmHg 78%
08:00 +23°C° 0.4 mm 2 mps 749 mmHg 75%
09:00 +24°C° 0.4 mm 2 mps 749 mmHg 72%
10:00 +25°C° 0.4 mm 2 mps 749 mmHg 69%
11:00 +26°C° 0.1 mm 2 mps 749 mmHg 64%
12:00 +27°C° 0.1 mm 3 mps 749 mmHg 59%
13:00 +28°C° 0.1 mm 3 mps 749 mmHg 53%
14:00 +28°C° 0.1 mm 4 mps 748 mmHg 51%
15:00 +28°C° 0.1 mm 4 mps 748 mmHg 48%
16:00 +28°C° 0.1 mm 5 mps 748 mmHg 45%
17:00 +27°C° 0 mm 4 mps 748 mmHg 51%
18:00 +25°C° 0 mm 4 mps 749 mmHg 58%
19:00 +23°C° 0 mm 4 mps 749 mmHg 65%
20:00 +21°C° 0 mm 4 mps 749 mmHg 72%
21:00 +19°C° 0 mm 3 mps 750 mmHg 79%
22:00 +17°C° 0 mm 3 mps 750 mmHg 86%
23:00 +16°C° 0 mm 3 mps 751 mmHg 88%
Mostrar más

Necesitamos Su Consentimiento

Meteoprog y nuestros Proveedores de Servicios pueden almacenar y acceder a sus datos personales como cookies, identificadores de dispositivo u otras tecnologías similares de su dispositivo y procesar dichos datos para personalizar contenido y anuncios, además de ofrecer funciones de redes sociales y analizar el tráfico.

  • Almacenar y/o acceder a información en su dispositivo

    Se puede almacenar o acceder a cookies, identificadores de dispositivo u otra información de su dispositivo para los fines anteriormente indicados.

  • Anuncios y contenido personalizados, medición de anuncios y contenido, percepciones del público, y desarrollo de productos

    Los anuncios y el contenido pueden personalizarse en base a su perfil. Se pueden añadir más datos para personalizar mejor los anuncios y contenidos. Se puede medir el rendimiento de los anuncios y contenidos. Se puede obtener la percepción sobre el público que ha visto los anuncios y contenidos. Dichos datos pueden usarse para desarrollar o mejorar la experiencia del usuario, sistemas y software.

Al hacer clic en ‘Estoy De Acuerdo’ usted permitirá el uso de las cookies, identificadores de dispositivo, balizas web u otras tecnologías similares indicadas. Su configuración puede cambiarse desde el navegador de su dispositivo.

Para ciertos fines, los intereses legítimos pueden ser considerados por encima del consentimiento. Puede leer más sobre ello en nuestra Política de Privacidad y Cookies.